Mount Shasta, CA

10:58 PM PDT on April 23, 2018 (GMT -0700)
Mount Shasta

Weather History for KMHS - October, 2012

Change the Weather History Date:

Monday, October 22, 2012

  Actual Average Record
Temperature  
Mean Temperature 41 °F 49 °F  
Max Temperature 49 °F 63 °F 81 °F (1965)
Min Temperature 33 °F 35 °F 22 °F (1961)
Degree Days  
Heating Degree Days 24 16  
Month to date heating degree days 197 267  
Since 1 July heating degree days 242 504  
Moisture  
Dew Point 33 °F    
Average Humidity 82    
Maximum Humidity 92    
Minimum Humidity 41    
Precipitation  
Precipitation 0.47 in 0.09 in 2.74 in (1973)
Month to date precipitation 0.47 1.26  
Year to date precipitation 25.03 29.26  
Sea Level Pressure  
Sea Level Pressure 29.70 in    
Wind  
Wind Speed 1 mph (North)    
Max Wind Speed 8 mph    
Max Gust Speed 17 mph    
Visibility 8 miles    
Events Rain    
T = Trace of Precipitation, MM = Missing Value Source: NWS Daily Summary

Daily Weather History Graph

Daily Weather History Graph

Search for Another Location

Airport or City:

Astronomy

Oct. 22, 2012 Rise Set
Actual Time 7:29 AM PDT 6:17 PM PDT
Civil Twilight 7:01 AM PDT 6:45 PM PDT
Nautical Twilight 6:29 AM PDT 7:17 PM PDT
Astronomical Twilight 5:57 AM PDT 7:49 PM PDT
Moon 2:32 PM PDT (10/22) 12:18 AM PDT (10/22)
Length of Visible Light 11h 43m
Length of Day
10h 47m
First Quarter, 57% of the Moon is Illuminated
Oct 22
First Quarter
Oct 29
Full
Nov 6
Last Quarter
Nov 13
New
Nov 20
First Quarter

Hourly Weather History & Observations

Time (PDT) Temp. Windchill Dew Point Humidity Pressure Visibility Wind Dir Wind Speed Gust Speed Precip Events Conditions
12:56 AM 43.0 °F - 34.0 °F 71% 29.73 in 10.0 mi Calm Calm - 0.00 in   Overcast
1:36 AM 41.0 °F 38.0 °F 35.6 °F 81% 29.68 in 6.0 mi Variable 4.6 mph - 0.01 in Rain Light Rain
1:56 AM 39.9 °F 37.8 °F 36.0 °F 86% 29.71 in 6.0 mi Variable 3.5 mph - 0.03 in Rain Rain
2:56 AM 37.9 °F 33.5 °F 34.0 °F 86% 29.71 in 5.0 mi Variable 5.8 mph - 0.09 in Rain Rain
3:56 AM 37.0 °F - 34.0 °F 89% 29.68 in 7.0 mi Calm Calm - 0.13 in Rain Rain
4:56 AM 36.0 °F - 33.1 °F 89% 29.67 in 5.0 mi Calm Calm - 0.09 in Rain Rain
5:56 AM 36.0 °F - 33.1 °F 89% 29.68 in 6.0 mi Calm Calm - 0.08 in Rain Light Rain
6:56 AM 36.0 °F - 33.1 °F 89% 29.68 in 10.0 mi Calm Calm - 0.03 in Rain Light Rain
7:24 AM 33.8 °F - 30.2 °F 87% 29.62 in 10.0 mi Calm Calm - 0.00 in   Overcast
7:40 AM 33.8 °F - 30.2 °F 87% 29.62 in 9.0 mi Calm Calm - 0.00 in   Overcast
7:52 AM 33.8 °F - 30.2 °F 87% 29.62 in 7.0 mi Calm Calm - 0.00 in   Mostly Cloudy
7:56 AM 33.1 °F - 30.9 °F 92% 29.69 in 7.0 mi Calm Calm - 0.00 in   Overcast
8:06 AM 33.8 °F - 30.2 °F 87% 29.63 in 8.0 mi Calm Calm - N/A   Overcast
8:28 AM 35.6 °F - 32.0 °F 87% 29.64 in 8.0 mi Calm Calm - N/A   Mostly Cloudy
8:56 AM 37.0 °F - 34.0 °F 89% 29.70 in 7.0 mi Calm Calm - 0.00 in Rain Light Rain
9:11 AM 37.4 °F - 35.6 °F 93% 29.65 in 1.5 mi Calm Calm - 0.00 in   Overcast
9:14 AM 37.4 °F - 35.6 °F 93% 29.65 in 1.0 mi Calm Calm - N/A   Overcast
9:21 AM 37.4 °F - 35.6 °F 93% 29.65 in 0.8 mi Calm Calm - 0.00 in   Overcast
9:25 AM 37.4 °F - 35.6 °F 93% 29.65 in 1.5 mi Calm Calm - 0.00 in   Overcast
9:27 AM 37.4 °F - 35.6 °F 93% 29.65 in 3.0 mi Calm Calm - 0.00 in   Overcast
9:47 AM 39.2 °F - 37.4 °F 93% 29.66 in 10.0 mi Calm Calm - 0.00 in   Mostly Cloudy
9:56 AM 41.0 °F 39.0 °F 37.0 °F 86% 29.71 in 10.0 mi Variable 3.5 mph - 0.00 in   Mostly Cloudy
10:14 AM 41.0 °F 39.0 °F 37.4 °F 87% 29.66 in 10.0 mi Variable 3.5 mph - N/A   Mostly Cloudy
10:56 AM 44.1 °F - 37.0 °F 76% 29.72 in 10.0 mi Calm Calm - N/A   Partly Cloudy
11:56 AM 46.0 °F - 37.0 °F 71% 29.73 in 10.0 mi Calm Calm - N/A   Mostly Cloudy
12:56 PM 46.9 °F - 36.0 °F 66% 29.73 in 10.0 mi Calm Calm - N/A   Mostly Cloudy
1:56 PM 48.0 °F - 34.0 °F 58% 29.73 in 10.0 mi Calm Calm - N/A   Mostly Cloudy
2:56 PM 48.9 °F - 28.9 °F 46% 29.71 in 10.0 mi Calm Calm - N/A   Mostly Cloudy
3:56 PM 48.0 °F - 30.9 °F 52% 29.73 in 10.0 mi Calm Calm - N/A   Mostly Cloudy
4:56 PM 45.0 °F - 23.0 °F 42% 29.75 in 10.0 mi Calm Calm - N/A   Scattered Clouds
5:56 PM 42.1 °F - 28.0 °F 58% 29.76 in 10.0 mi Calm Calm - N/A   Overcast
6:56 PM 37.9 °F - 32.0 °F 79% 29.79 in 10.0 mi Calm Calm - 0.00 in Rain Light Rain
7:53 PM 37.4 °F 34.9 °F 32.0 °F 81% 29.71 in 5.0 mi Variable 3.5 mph - 0.01 in Rain Rain
7:56 PM 37.0 °F - 33.1 °F 86% 29.80 in 4.0 mi Calm Calm - 0.01 in Rain Light Rain
8:39 PM 35.6 °F - 33.8 °F 93% 29.71 in 10.0 mi Calm Calm - 0.01 in   Overcast
8:56 PM 36.0 °F 32.1 °F 33.1 °F 89% 29.79 in 10.0 mi Variable 4.6 mph - 0.01 in   Overcast
9:56 PM 36.0 °F 33.3 °F 32.0 °F 86% 29.79 in 10.0 mi Variable 3.5 mph - 0.00 in   Mostly Cloudy
10:56 PM 36.0 °F 33.3 °F 32.0 °F 86% 29.79 in 10.0 mi Variable 3.5 mph - N/A   Mostly Cloudy
11:56 PM 36.0 °F - 32.0 °F 86% 29.81 in 10.0 mi Calm Calm - N/A   Overcast